YAOGAN 21

Last updated on Sat Apr 13 2024 01:02:24 GMT+0100 (British Summer Time)

1 40143U 14053A 24103.56302078 .00009870 00000+0 41415-3 0 9997 2 40143 97.2587 163.7559 0007507 36.2491 323.9253 15.23646695533782
UTC large
Height (km)
Speed (km/s)
/
Latitude / Longitude
Inclination (degrees)
Orbital Period (minutes)
Azimuth
Elevation
Range (km)
Doppler Factor

Next 0 passes for location: London (51.5072 / 0.1276)

Sorry there are no passes over London.